TimeCST,TemperatureF,Dew PointF,Humidity,Sea Level PressureIn,VisibilityMPH,Wind Direction,Wind SpeedMPH,Gust SpeedMPH,PrecipitationIn,Events,Conditions,WindDirDegrees,DateUTC
12:15 AM,51.4,48.7,90,29.93,10.0,SSE,15.0,20.7,N/A,,Scattered Clouds,150,2013-11-05 06:15:00
12:35 AM,51.4,49.1,92,29.92,10.0,SSE,16.1,-,N/A,,Scattered Clouds,160,2013-11-05 06:35:00
12:55 AM,51.8,49.5,92,29.92,10.0,SSE,17.3,20.7,N/A,,Clear,160,2013-11-05 06:55:00
1:15 AM,52.0,50.0,93,29.91,10.0,SSE,19.6,-,N/A,,Clear,160,2013-11-05 07:15:00
1:35 AM,52.3,50.2,92,29.92,10.0,South,18.4,25.3,N/A,,Clear,170,2013-11-05 07:35:00
1:55 AM,52.3,50.0,92,29.92,10.0,South,16.1,23.0,N/A,,Mostly Cloudy,170,2013-11-05 07:55:00
2:15 AM,52.5,50.2,92,29.93,10.0,South,12.7,19.6,N/A,,Overcast,170,2013-11-05 08:15:00
2:35 AM,52.7,50.2,91,29.92,10.0,South,12.7,-,N/A,,Overcast,170,2013-11-05 08:35:00
2:55 AM,52.7,50.2,91,29.92,10.0,South,15.0,-,N/A,,Overcast,170,2013-11-05 08:55:00
3:15 AM,52.7,50.4,92,29.92,10.0,South,15.0,20.7,N/A,,Overcast,170,2013-11-05 09:15:00
3:35 AM,52.7,50.4,92,29.91,10.0,South,15.0,20.7,N/A,,Overcast,170,2013-11-05 09:35:00
3:55 AM,52.7,50.2,91,29.90,10.0,SSE,12.7,18.4,N/A,,Overcast,160,2013-11-05 09:55:00
4:15 AM,52.7,50.2,91,29.90,10.0,SSE,11.5,-,N/A,,Overcast,160,2013-11-05 10:15:00
4:35 AM,52.7,50.0,91,29.91,10.0,SSE,16.1,-,N/A,Thunderstorm,Overcast,160,2013-11-05 10:35:00
4:55 AM,52.7,50.2,91,29.90,4.0,SSE,16.1,20.7,N/A,Rain-Thunderstorm,Light Thunderstorms and Rain,160,2013-11-05 10:55:00
5:15 AM,52.2,50.4,94,29.91,10.0,South,13.8,-,N/A,,Overcast,170,2013-11-05 11:15:00
5:35 AM,52.2,50.4,94,29.91,10.0,South,13.8,17.3,N/A,,Overcast,180,2013-11-05 11:35:00
5:55 AM,52.0,50.2,94,29.91,5.0,South,13.8,19.6,N/A,,Overcast,180,2013-11-05 11:55:00
6:15 AM,52.0,50.4,94,29.91,3.0,South,12.7,17.3,N/A,,Overcast,180,2013-11-05 12:15:00
6:35 AM,51.8,50.4,95,29.92,2.0,South,13.8,-,N/A,,Overcast,190,2013-11-05 12:35:00
6:55 AM,51.8,50.4,95,29.92,1.5,South,13.8,-,N/A,,Overcast,190,2013-11-05 12:55:00
7:15 AM,52.0,50.5,95,29.92,1.2,South,12.7,-,N/A,,Overcast,180,2013-11-05 13:15:00
7:35 AM,52.0,50.5,95,29.92,1.5,South,11.5,-,N/A,,Overcast,180,2013-11-05 13:35:00
7:55 AM,52.0,50.5,95,29.92,1.8,South,10.4,-,N/A,,Overcast,170,2013-11-05 13:55:00
8:15 AM,52.0,50.9,96,29.92,2.0,South,11.5,-,N/A,,Overcast,170,2013-11-05 14:15:00
8:35 AM,52.3,51.1,95,29.93,2.0,South,13.8,-,N/A,Thunderstorm,Overcast,180,2013-11-05 14:35:00
8:55 AM,52.7,51.6,96,29.94,2.0,South,15.0,19.6,N/A,,Overcast,180,2013-11-05 14:55:00
9:15 AM,53.6,52.0,94,29.93,4.0,South,12.7,16.1,N/A,,Overcast,190,2013-11-05 15:15:00
9:35 AM,54.7,53.2,95,29.91,5.0,South,18.4,-,N/A,,Overcast,180,2013-11-05 15:35:00
9:55 AM,54.9,53.1,94,29.91,7.0,South,20.7,25.3,N/A,Thunderstorm,Overcast,180,2013-11-05 15:55:00
10:15 AM,55.4,53.2,92,29.92,5.0,South,17.3,23.0,N/A,,Overcast,180,2013-11-05 16:15:00
10:35 AM,55.2,52.7,91,29.92,5.0,South,17.3,21.9,N/A,,Overcast,190,2013-11-05 16:35:00
10:55 AM,55.4,53.1,92,29.93,5.0,SSW,12.7,-,N/A,,Overcast,200,2013-11-05 16:55:00
11:15 AM,55.8,52.7,89,29.94,7.0,SSW,16.1,21.9,N/A,,Overcast,210,2013-11-05 17:15:00
11:35 AM,55.6,52.7,90,29.93,5.0,SW,11.5,21.9,N/A,,Overcast,220,2013-11-05 17:35:00
11:55 AM,55.6,53.2,92,29.93,5.0,SSW,11.5,-,N/A,Rain,Light Rain,210,2013-11-05 17:55:00
12:15 PM,55.9,53.6,92,29.92,7.0,SSW,10.4,-,N/A,Rain,Light Rain,200,2013-11-05 18:15:00
12:35 PM,55.9,53.6,92,29.92,7.0,SSW,9.2,-,N/A,,Overcast,200,2013-11-05 18:35:00
12:55 PM,57.0,54.1,90,29.90,7.0,South,10.4,-,N/A,,Overcast,190,2013-11-05 18:55:00
1:15 PM,59.2,54.5,84,29.89,10.0,South,13.8,18.4,N/A,,Mostly Cloudy,190,2013-11-05 19:15:00
1:35 PM,62.4,54.0,74,29.87,10.0,SSW,16.1,19.6,N/A,,Scattered Clouds,210,2013-11-05 19:35:00
1:55 PM,63.7,53.4,69,29.86,10.0,SSW,18.4,21.9,N/A,,Scattered Clouds,200,2013-11-05 19:55:00
2:15 PM,63.1,52.5,68,29.86,10.0,SSW,15.0,-,N/A,,Scattered Clouds,200,2013-11-05 20:15:00
2:35 PM,65.7,52.3,62,29.86,10.0,SSW,12.7,-,N/A,,Mostly Cloudy,210,2013-11-05 20:35:00
2:55 PM,66.9,51.4,57,29.86,10.0,SW,13.8,20.7,N/A,,Scattered Clouds,220,2013-11-05 20:55:00
3:15 PM,66.9,50.2,55,29.86,10.0,SW,12.7,17.3,N/A,,Scattered Clouds,220,2013-11-05 21:15:00
3:35 PM,66.6,50.9,57,29.86,10.0,SSW,8.1,-,N/A,,Mostly Cloudy,200,2013-11-05 21:35:00
3:55 PM,65.5,51.3,60,29.87,10.0,SSW,11.5,-,N/A,,Overcast,210,2013-11-05 21:55:00
4:15 PM,64.6,51.6,63,29.87,10.0,SSW,8.1,-,N/A,,Overcast,210,2013-11-05 22:15:00
4:35 PM,53.6,45.5,74,29.91,10.0,North,28.8,36.8,N/A,,Overcast,350,2013-11-05 22:35:00
4:55 PM,48.4,43.2,82,29.94,10.0,North,23.0,35.7,N/A,,Mostly Cloudy,10,2013-11-05 22:55:00
5:15 PM,48.2,42.8,82,29.96,10.0,North,23.0,29.9,N/A,,Mostly Cloudy,360,2013-11-05 23:15:00
5:35 PM,47.8,41.5,79,29.98,10.0,North,21.9,29.9,N/A,,Mostly Cloudy,360,2013-11-05 23:35:00
5:55 PM,47.8,40.6,76,29.99,10.0,North,20.7,28.8,N/A,,Overcast,360,2013-11-05 23:55:00
6:15 PM,46.6,40.3,79,30.00,10.0,North,20.7,27.6,N/A,,Mostly Cloudy,360,2013-11-06 00:15:00
6:35 PM,46.6,40.8,80,30.01,10.0,North,19.6,24.2,N/A,,Mostly Cloudy,360,2013-11-06 00:35:00
6:55 PM,46.2,40.1,79,30.03,10.0,North,25.3,29.9,N/A,,Overcast,360,2013-11-06 00:55:00
7:15 PM,43.5,37.4,79,30.05,10.0,North,19.6,27.6,N/A,,Mostly Cloudy,350,2013-11-06 01:15:00
7:35 PM,42.4,36.0,78,30.06,10.0,North,21.9,27.6,N/A,,Mostly Cloudy,350,2013-11-06 01:35:00
7:55 PM,41.4,35.6,80,30.07,10.0,North,21.9,27.6,N/A,,Scattered Clouds,360,2013-11-06 01:55:00
8:15 PM,41.0,34.9,79,30.08,10.0,North,15.0,27.6,N/A,,Clear,350,2013-11-06 02:15:00
8:35 PM,40.3,34.7,80,30.08,10.0,North,16.1,24.2,N/A,,Clear,350,2013-11-06 02:35:00
8:55 PM,39.6,34.3,82,30.10,10.0,NNW,17.3,20.7,N/A,,Clear,340,2013-11-06 02:55:00
9:15 PM,39.2,33.8,81,30.10,10.0,North,16.1,-,N/A,,Clear,350,2013-11-06 03:15:00
9:35 PM,39.4,33.3,79,30.11,10.0,North,16.1,25.3,N/A,,Scattered Clouds,360,2013-11-06 03:35:00
9:55 PM,39.4,33.1,78,30.12,10.0,North,18.4,24.2,N/A,,Mostly Cloudy,350,2013-11-06 03:55:00
10:15 PM,38.8,32.4,78,30.13,10.0,North,18.4,24.2,N/A,,Mostly Cloudy,350,2013-11-06 04:15:00
10:35 PM,38.8,32.0,76,30.14,10.0,North,18.4,24.2,N/A,,Mostly Cloudy,360,2013-11-06 04:35:00
10:55 PM,38.5,32.2,78,30.16,10.0,North,12.7,24.2,N/A,,Overcast,350,2013-11-06 04:55:00
11:15 PM,38.3,32.7,80,30.18,10.0,North,9.2,17.3,N/A,,Overcast,360,2013-11-06 05:15:00
11:35 PM,37.8,32.0,80,30.17,10.0,North,16.1,21.9,N/A,,Overcast,360,2013-11-06 05:35:00
11:55 PM,37.6,32.0,80,30.16,10.0,North,12.7,-,N/A,,Mostly Cloudy,10,2013-11-06 05:55:00